Weather in Vasilyevka

Russia / Orenburg Oblast     52°10′45″N   52°08′41″E
temp.,
°C
wind,
m/s
gust,
m/s
humid.,
%
clouds,
%
prec.,
mm/h
press.,
hPa
HPBL,
m
21 january, fri
fri2123:00−14se129869 0.1 102218
02:00−17se2210097 0.0 102310
05:00−17ese11100100 0.1 102312
08:00−17ese1110094 0.1 102310
11:00−17ese2210095 0.1 102415
14:00−11sse269685 0.0 1023168
17:00−13ese229883 0.1 102319
20:00−14se2410091 0.1 102447
22 january, sat
sat2223:00−14se389982 0.1 1024110
02:00−15se369983 0.0 102483
05:00−12se41095100 0.1 1024197
08:00−12se41096100 0.1 1024185
11:00−12se41196100 0.1 1025228
14:00−9sse51294100 0.0 1025306
17:00−9sse51094100 0.1 1026295
20:00−10sse51192100 0.0 1027240
23 january, sun
sun2323:00−11se4118998 0.0 1028209
02:00−13se31186100 0.0 1029201
05:00−14ese3888100 0.0 1030139
08:00−15se3986100 0.0 1031145
11:00−13se41180100 0.0 1032201
14:00−10se41079100 0.0 1033250
17:00−11ese41085100 0.0 1034193
20:00−11ese41184100 0.0 1035206
24 january, mon
mon2423:00−11ese41088100 0.0 1036203
02:00−13e3888100 0.0 1037141
05:00−13ese41187100 0.0 1038186
08:00−12ese41084100 0.0 1038217
11:00−13ese41182100 0.0 1039218
14:00−12ese4108280 0.0 1039242
17:00−13e3885100 0.0 1039139
20:00−15ese31084100 0.0 1039125
25 january, tue
tue2523:00−16se3118581 0.0 1038143
02:00−19ese229298 0.0 103924
05:00−20se2292100 0.0 103822
08:00−21ese229181 0.0 103812
11:00−19ese229142 0.0 103825
14:00−12se268375 0.0 1037148
17:00−14ese229067 0.0 103711
20:00−18ese229349 0.0 103710